KS5S Weather Reports


Display with metric or nautical units.
time (UTC)temp
F
wind
direction
speed
MPH
gust
MPH
rain 1hr
in
rain 24hr
in
rain mn
in
humidity
%
barometer
mb
20260507090634 55 33 5.0 7.0 0.00 0.00 0.00 89 1015.4
20260507090131 56 28 5.0 7.0 0.00 0.00 0.00 89 1015.5
20260507085628 56 31 4.0 7.0 0.00 0.00 0.00 89 1015.3
20260507085125 56 41 6.0 8.0 0.00 0.00 0.00 88 1015.4
20260507084621 56 23 5.0 8.0 0.00 0.00 0.00 88 1015.4
20260507084118 56 37 3.0 8.0 0.00 0.00 0.00 88 1015.5
20260507083615 57 26 5.0 8.0 0.00 0.00 0.00 89 1015.4
20260507083112 57 18 2.0 10.0 0.00 0.00 0.00 89 1015.1
20260507082608 57 29 4.0 9.0 0.00 0.00 0.00 89 1015.2
20260507082104 57 14 4.0 7.0 0.00 0.00 0.00 90 1015.0
20260507081601 57 20 8.0 10.0 0.00 0.00 0.00 90 1014.7
20260507081058 57 22 3.0 8.0 0.00 0.00 0.00 90 1015.0
20260507080554 57 6 3.0 7.0 0.00 0.00 0.00 89 1015.0
20260507080050 58 37 3.0 7.0 0.00 0.00 0.00 88 1015.0
20260507075545 58 26 7.0 7.0 0.00 0.00 0.00 87 1015.5
20260507075042 58 22 5.0 9.0 0.00 0.00 0.00 87 1015.3
20260507074539 58 0 2.0 9.0 0.00 0.00 0.00 88 1015.4
20260507074038 58 3 3.0 9.0 0.00 0.00 0.00 87 1015.3
20260507073533 58 39 7.0 8.0 0.00 0.00 0.00 86 1014.9
20260507073030 59 18 4.0 11.0 0.00 0.00 0.00 86 1015.0
20260507072528 59 30 4.0 9.0 0.00 0.00 0.00 87 1014.9
20260507072025 59 28 3.0 10.0 0.00 0.00 0.00 87 1014.8
20260507071522 59 15 8.0 9.0 0.00 0.00 0.00 87 1014.8
20260507071019 59 36 6.0 10.0 0.00 0.00 0.00 87 1014.5
20260507070516 59 36 4.0 11.0 0.00 0.00 0.00 87 1014.3
20260507070014 59 22 5.0 10.0 0.00 0.00 0.00 88 1014.4
20260507065509 59 3 3.0 13.0 0.00 0.00 0.00 88 1014.2
20260507065006 59 54 6.0 15.0 0.00 0.00 0.00 87 1014.2
20260507064504 59 41 10.0 12.0 0.00 0.00 0.00 88 1014.1
20260507064002 59 30 7.0 14.0 0.00 0.00 0.00 87 1014.2
20260507063459 59 60 6.0 11.0 0.00 0.00 0.00 87 1014.2
20260507062956 60 46 7.0 14.0 0.00 0.00 0.00 87 1014.3
20260507062453 60 45 4.0 9.0 0.00 0.00 0.00 87 1014.3
20260507061950 60 68 8.0 13.0 0.00 0.00 0.00 86 1014.5
20260507061448 60 33 9.0 10.0 0.00 0.00 0.00 87 1014.4
20260507060946 60 59 7.0 11.0 0.00 0.00 0.00 87 1014.3
20260507060443 60 29 4.0 10.0 0.00 0.00 0.00 87 1014.4
20260507055939 60 51 4.0 6.0 0.00 0.00 0.00 87 1014.4
20260507055435 60 32 4.0 9.0 0.00 0.00 0.00 87 1014.4
20260507054932 60 46 9.0 11.0 0.00 0.00 0.00 86 1014.5
20260507054428 60 80 6.0 13.0 0.00 0.00 0.00 86 1014.2
20260507053925 60 71 4.0 9.0 0.00 0.00 0.00 87 1014.4
20260507053422 60 46 8.0 10.0 0.00 0.00 0.00 87 1014.6
20260507052921 60 48 9.0 11.0 0.00 0.00 0.00 87 1014.4
20260507052418 60 61 5.0 13.0 0.00 0.00 0.00 87 1014.6
20260507051909 60 31 7.0 11.0 0.00 0.00 0.00 87 1014.4
20260507051407 60 35 8.0 11.0 0.00 0.00 0.00 87 1014.3
20260507050904 60 44 10.0 11.0 0.00 0.00 0.00 87 1014.1
20260507050400 60 54 9.0 13.0 0.00 0.00 0.00 87 1014.4
20260507045857 60 80 5.0 14.0 0.00 0.03 0.03 88 1014.4
20260507045353 60 79 4.0 15.0 0.00 0.03 0.03 88 1014.4
20260507044851 60 27 7.0 11.0 0.00 0.03 0.03 88 1014.6
20260507044347 60 62 5.0 8.0 0.00 0.03 0.03 88 1014.5
20260507043843 60 67 4.0 11.0 0.00 0.03 0.03 89 1014.5
20260507043340 59 59 5.0 11.0 0.00 0.03 0.03 89 1014.6
20260507042836 59 93 4.0 10.0 0.00 0.03 0.03 90 1014.8
20260507042332 59 79 5.0 11.0 0.00 0.03 0.03 90 1014.6
20260507041829 59 58 5.0 9.0 0.00 0.03 0.03 90 1014.9
20260507041326 59 74 5.0 9.0 0.00 0.03 0.03 91 1014.6
20260507040823 60 52 7.0 9.0 0.00 0.03 0.03 90 1014.6
20260507040319 60 33 3.0 10.0 0.00 0.03 0.03 91 1014.5
20260507035815 60 70 3.0 7.0 0.00 0.03 0.03 91 1014.8
20260507035310 60 58 5.0 9.0 0.00 0.03 0.03 91 1014.8
20260507034809 60 25 5.0 9.0 0.00 0.03 0.03 91 1014.8
20260507034305 60 72 4.0 9.0 0.00 0.03 0.03 91 1014.8
20260507033803 60 44 4.0 7.0 0.00 0.03 0.03 91 1014.8
20260507033301 59 78 4.0 7.0 0.00 0.03 0.03 91 1015.0
20260507032757 59 67 4.0 7.0 0.00 0.03 0.03 91 1014.9
20260507032253 59 18 1.0 7.0 0.00 0.03 0.03 92 1014.7
20260507031750 59 63 4.0 9.0 0.00 0.03 0.03 92 1014.8
20260507031247 59 36 4.0 8.0 0.00 0.03 0.03 92 1014.6
20260507030744 59 46 4.0 8.0 0.00 0.03 0.03 92 1014.3
20260507030241 59 38 4.0 9.0 0.00 0.03 0.03 92 1014.4
20260507025738 59 34 5.0 6.0 0.00 0.03 0.03 92 1014.3
20260507025236 59 42 2.0 8.0 0.00 0.03 0.03 92 1014.3
20260507024734 59 47 3.0 9.0 0.00 0.03 0.03 92 1014.3
20260507024231 59 12 2.0 6.0 0.00 0.03 0.03 92 1014.1
20260507023726 59 21 5.0 7.0 0.00 0.03 0.03 92 1014.0
20260507023223 59 16 3.0 5.0 0.00 0.03 0.03 92 1014.1
20260507022720 59 33 3.0 5.0 0.00 0.03 0.03 91 1013.8
20260507022216 60 10 3.0 7.0 0.00 0.03 0.03 91 1013.7
20260507021713 60 33 3.0 5.0 0.00 0.03 0.03 91 1013.8
20260507021208 60 26 3.0 7.0 0.00 0.03 0.03 91 1013.7
20260507020707 60 21 3.0 6.0 0.00 0.03 0.03 91 1013.5
20260507020202 60 23 3.0 6.0 0.00 0.03 0.03 90 1013.4
20260507015701 60 42 4.0 7.0 0.00 0.03 0.03 90 1013.3
20260507015158 60 35 4.0 6.0 0.00 0.03 0.03 90 1013.0
20260507014654 60 42 4.0 7.0 0.00 0.03 0.03 89 1013.0
20260507014150 60 25 4.0 7.0 0.00 0.03 0.03 89 1012.9
20260507013647 60 27 6.0 6.0 0.00 0.03 0.03 89 1012.6
20260507013144 60 19 4.0 8.0 0.00 0.03 0.03 88 1012.6
20260507012642 60 17 3.0 7.0 0.00 0.03 0.03 88 1012.7
20260507012137 61 16 6.0 6.0 0.00 0.03 0.03 88 1012.4
20260507011636 61 8 3.0 8.0 0.00 0.03 0.03 87 1012.3
20260507011131 61 19 5.0 10.0 0.00 0.03 0.03 87 1012.1
20260507010626 61 32 4.0 7.0 0.00 0.03 0.03 87 1012.0
20260507010122 61 51 6.0 10.0 0.00 0.03 0.03 86 1012.0
20260507005620 61 24 4.0 10.0 0.00 0.03 0.03 86 1011.9
20260507005116 61 12 3.0 10.0 0.00 0.03 0.03 86 1012.0
20260507004613 61 28 5.0 10.0 0.00 0.03 0.03 86 1011.9
20260507004111 61 19 6.0 11.0 0.00 0.03 0.03 87 1011.7
20260507003607 61 31 6.0 11.0 0.00 0.03 0.03 87 1012.0
20260507003101 61 22 2.0 8.0 0.00 0.03 0.03 87 1012.1
20260507002558 61 43 3.0 7.0 0.00 0.03 0.03 87 1012.2
20260507002054 61 6 4.0 7.0 0.00 0.03 0.03 87 1012.2
20260507001551 61 44 4.0 12.0 0.00 0.03 0.03 86 1012.0
20260507001049 61 15 3.0 7.0 0.00 0.03 0.03 87 1012.2
20260507000544 61 46 3.0 7.0 0.00 0.03 0.03 87 1011.9
20260507000040 61 20 3.0 8.0 0.00 0.03 0.03 87 1011.9
20260506235538 61 20 4.0 7.0 0.00 0.03 0.03 87 1011.9
20260506235033 61 11 2.0 6.0 0.00 0.03 0.03 87 1011.9
20260506234531 61 24 4.0 10.0 0.00 0.03 0.03 87 1011.5
20260506234028 60 38 5.0 8.0 0.00 0.03 0.03 88 1011.7
20260506233524 60 8 5.0 10.0 0.00 0.03 0.03 90 1011.2
20260506233016 60 3 4.0 9.0 0.00 0.03 0.03 89 1011.4
20260506232512 60 10 3.0 8.0 0.00 0.03 0.03 89 1011.2
20260506232007 60 9 5.0 9.0 0.14 0.03 0.03 89 1011.2
20260506231505 61 3 11.0 15.0 0.17 0.03 0.03 86 1011.1
20260506231003 62 46 6.0 11.0 0.00 0.00 0.00 82 1011.4
20260506230459 63 32 6.0 11.0 0.00 0.00 0.00 78 1011.1
20260506225956 63 18 3.0 9.0 0.00 0.00 0.00 79 1011.1
20260506225453 63 11 3.0 5.0 0.00 0.00 0.00 78 1011.2
20260506224949 63 17 5.0 7.0 0.00 0.00 0.00 77 1011.1
20260506224446 63 19 5.0 13.0 0.00 0.00 0.00 77 1010.7
20260506223943 63 16 6.0 9.0 0.00 0.00 0.00 77 1010.9
20260506223439 63 7 7.0 11.0 0.00 0.00 0.00 76 1011.2
20260506222936 63 352 5.0 7.0 0.00 0.00 0.00 77 1011.2
20260506222432 63 357 7.0 7.0 0.00 0.00 0.00 76 1011.2
20260506221929 63 343 2.0 6.0 0.00 0.00 0.00 77 1011.1
20260506221426 64 356 2.0 9.0 0.00 0.00 0.00 77 1011.0
20260506220924 64 330 0.0 6.0 0.00 0.00 0.00 78 1011.1
20260506220419 63 2 3.0 9.0 0.00 0.00 0.00 76 1011.0
20260506215916 63 31 2.0 6.0 0.00 0.00 0.00 77 1011.0
20260506215412 63 25 3.0 9.0 0.00 0.00 0.00 77 1011.0
20260506214908 63 355 3.0 5.0 0.00 0.00 0.00 77 1011.1
20260506214406 63 27 3.0 5.0 0.00 0.00 0.00 77 1011.0
20260506213903 63 2 5.0 6.0 0.00 0.00 0.00 78 1011.1
20260506213401 63 6 2.0 5.0 0.00 0.00 0.00 77 1011.1
20260506212858 62 295 2.0 7.0 0.00 0.00 0.00 77 1011.2
20260506212353 62 5 3.0 9.0 0.00 0.00 0.00 77 1011.3
20260506211848 62 0 6.0 10.0 0.00 0.00 0.00 78 1011.1
20260506211345 62 6 2.0 7.0 0.00 0.00 0.00 77 1011.2
20260506210842 62 302 4.0 9.0 0.00 0.00 0.00 77 1011.2
20260506210339 62 349 3.0 11.0 0.00 0.00 0.00 78 1011.1
20260506205836 62 26 4.0 10.0 0.00 0.00 0.00 78 1011.0
20260506205332 62 1 5.0 12.0 0.00 0.00 0.00 77 1011.1
20260506204829 62 345 4.0 10.0 0.00 0.00 0.00 77 1011.3
20260506204326 62 14 4.0 10.0 0.00 0.00 0.00 78 1011.2
20260506203824 62 13 3.0 11.0 0.00 0.00 0.00 78 1011.2
20260506203321 62 19 7.0 8.0 0.00 0.00 0.00 77 1011.4
20260506202817 61 3 4.0 9.0 0.00 0.00 0.00 79 1011.2
20260506202315 62 13 3.0 13.0 0.00 0.00 0.00 79 1011.1
20260506201811 61 334 3.0 13.0 0.00 0.00 0.00 78 1011.7
20260506201309 61 325 3.0 12.0 0.00 0.00 0.00 80 1011.9
20260506200805 61 5 8.0 9.0 0.00 0.00 0.00 80 1011.8
20260506200301 60 22 6.0 13.0 0.00 0.00 0.00 81 1011.5
20260506195758 60 26 5.0 8.0 0.00 0.00 0.00 82 1011.8
20260506195255 59 10 3.0 12.0 0.00 0.00 0.00 82 1012.0
20260506194752 59 7 6.0 14.0 0.00 0.00 0.00 81 1012.0
20260506194248 59 346 1.0 7.0 0.00 0.00 0.00 83 1012.4
20260506193746 59 11 5.0 10.0 0.00 0.00 0.00 83 1012.2
20260506193243 59 347 4.0 8.0 0.00 0.00 0.00 83 1012.1
20260506192739 58 342 4.0 6.0 0.00 0.00 0.00 85 1012.1
20260506192236 58 333 2.0 10.0 0.00 0.00 0.00 84 1012.2
20260506191733 58 346 1.0 7.0 0.00 0.00 0.00 85 1012.1
20260506191229 57 344 4.0 9.0 0.00 0.00 0.00 85 1012.3
20260506190726 58 7 6.0 6.0 0.00 0.00 0.00 86 1012.3
20260506190223 57 359 5.0 9.0 0.00 0.00 0.00 85 1012.4
20260506185720 57 319 2.0 9.0 0.00 0.00 0.00 86 1012.6
20260506185216 57 356 4.0 8.0 0.00 0.00 0.00 86 1012.5
20260506184714 57 17 3.0 6.0 0.00 0.00 0.00 86 1012.7
20260506184211 57 28 2.0 7.0 0.00 0.00 0.00 86 1012.8
20260506183708 57 348 2.0 8.0 0.00 0.00 0.00 86 1012.8
20260506183203 57 343 8.0 11.0 0.00 0.00 0.00 86 1012.7
20260506182701 57 310 3.0 6.0 0.00 0.00 0.00 87 1012.8
20260506182158 57 7 4.0 8.0 0.00 0.00 0.00 88 1013.0
20260506181655 57 10 2.0 7.0 0.00 0.00 0.00 87 1013.0
20260506181152 57 352 2.0 7.0 0.00 0.00 0.00 88 1013.0
20260506180650 57 25 5.0 8.0 0.00 0.00 0.00 88 1012.8
20260506180146 56 23 5.0 13.0 0.00 0.00 0.00 88 1012.6
20260506175642 57 323 4.0 13.0 0.00 0.00 0.00 88 1012.7
20260506175139 57 24 5.0 9.0 0.00 0.00 0.00 87 1012.0
20260506174632 57 4 7.0 17.0 0.00 0.00 0.00 88 1011.1
20260506174128 57 11 7.0 15.0 0.00 0.00 0.00 87 1010.8
20260506173626 57 358 5.0 17.0 0.00 0.00 0.00 88 1010.7
20260506173122 57 15 8.0 17.0 0.00 0.00 0.00 88 1010.5
20260506172620 57 12 5.0 20.0 0.00 0.00 0.00 87 1011.1
20260506172116 57 9 8.0 22.0 0.00 0.00 0.00 88 1011.3
20260506171613 57 359 5.0 13.0 0.00 0.00 0.00 87 1011.2
20260506171110 57 6 8.0 18.0 0.00 0.00 0.00 87 1011.4
20260506170607 57 23 13.0 20.0 0.00 0.00 0.00 87 1011.5
20260506170100 57 10 5.0 14.0 0.00 0.00 0.00 88 1011.9
20260506165558 56 12 5.0 13.0 0.00 0.00 0.00 87 1011.9
20260506165054 57 25 4.0 13.0 0.00 0.00 0.00 88 1011.8
20260506164551 56 11 4.0 9.0 0.00 0.00 0.00 88 1012.5
20260506164048 56 6 4.0 10.0 0.00 0.00 0.00 88 1012.7
20260506163544 57 359 3.0 16.0 0.00 0.00 0.00 87 1012.3
20260506163039 57 3 5.0 11.0 0.00 0.00 0.00 88 1012.5
20260506162536 56 18 8.0 13.0 0.00 0.00 0.00 88 1012.1
20260506162027 56 27 5.0 18.0 0.00 0.00 0.00 87 1011.7
20260506161525 57 19 15.0 16.0 0.00 0.00 0.00 87 1011.8
20260506161021 57 3 8.0 13.0 0.00 0.00 0.00 86 1011.8
20260506160519 57 20 5.0 13.0 0.00 0.00 0.00 86 1011.5
20260506160016 57 35 5.0 23.0 0.00 0.00 0.00 86 1011.1
20260506155515 57 19 4.0 18.0 0.00 0.00 0.00 87 1011.5
20260506153646 55 29 11.0 15.0 0.00 0.00 0.00 90 1011.7
20260506153143 55 3 6.0 9.0 0.00 0.00 0.00 90 1012.0
20260506152640 55 47 6.0 10.0 0.00 0.00 0.00 91 1011.9
20260506152138 54 8 5.0 9.0 0.02 0.00 0.00 91 1012.1
20260506151636 54 37 7.0 11.0 0.02 0.00 0.00 91 1012.3
20260506151133 54 39 4.0 9.0 0.00 0.00 0.00 91 1012.4
20260506150630 54 13 0.0 11.0 0.00 0.00 0.00 91 1012.8
20260506150127 54 314 8.0 12.0 0.00 0.00 0.00 90 1012.4
20260506145623 54 12 5.0 11.0 0.00 0.00 0.00 90 1012.7
20260506145120 54 7 5.0 13.0 0.00 0.00 0.00 89 1012.8
20260506144618 54 0 4.0 12.0 0.00 0.00 0.00 87 1012.8
20260506144114 54 349 7.0 11.0 0.00 0.00 0.00 86 1012.5
20260506143612 55 310 5.0 9.0 0.00 0.00 0.00 85 1014.0
20260506143110 55 326 4.0 9.0 0.00 0.00 0.00 86 1013.7
20260506142608 55 30 1.0 12.0 0.00 0.00 0.00 86 1013.8
20260506142106 55 322 5.0 12.0 0.00 0.00 0.00 85 1013.0
20260506141603 55 354 5.0 7.0 0.00 0.00 0.00 85 1012.7
20260506141101 55 1 7.0 11.0 0.00 0.00 0.00 85 1011.9
20260506140558 55 357 7.0 14.0 0.00 0.00 0.00 85 1011.5
20260506140056 55 332 4.0 15.0 0.00 0.00 0.00 84 1011.9
20260506135552 56 5 5.0 14.0 0.00 0.00 0.00 83 1011.7
20260506135048 56 354 5.0 11.0 0.00 0.00 0.00 82 1011.7
20260506134545 56 345 6.0 11.0 0.00 0.00 0.00 81 1011.8
20260506134041 56 338 8.0 10.0 0.00 0.00 0.00 81 1011.9
20260506133538 56 330 5.0 11.0 0.00 0.00 0.00 81 1011.5
20260506133035 56 20 11.0 15.0 0.00 0.00 0.00 80 1011.3
20260506132533 56 349 4.0 12.0 0.00 0.00 0.00 80 1011.5
20260506132030 57 0 6.0 11.0 0.00 0.00 0.00 79 1011.1
20260506131527 57 25 8.0 18.0 0.00 0.00 0.00 79 1010.9
20260506131023 57 1 5.0 12.0 0.00 0.00 0.00 79 1010.8
20260506130520 57 8 8.0 15.0 0.00 0.00 0.00 79 1010.6
20260506130018 57 23 10.0 15.0 0.00 0.00 0.00 80 1010.5
20260506125516 57 9 9.0 17.0 0.00 0.00 0.00 81 1010.5
20260506125013 57 348 3.0 14.0 0.00 0.00 0.00 81 1010.8
20260506124511 57 0 6.0 11.0 0.00 0.00 0.00 81 1010.4
20260506124009 57 0 5.0 11.0 0.00 0.00 0.00 80 1010.6
20260506123506 57 331 8.0 14.0 0.00 0.00 0.00 80 1010.5
20260506123004 57 4 6.0 13.0 0.00 0.00 0.00 80 1010.4
20260506122501 57 351 4.0 9.0 0.00 0.00 0.00 81 1010.2
20260506121959 57 13 8.0 13.0 0.00 0.00 0.00 82 1010.4
20260506121456 57 0 6.0 17.0 0.00 0.00 0.00 81 1010.1
20260506120952 57 27 5.0 13.0 0.00 0.00 0.00 81 1010.0
20260506120450 57 10 8.0 12.0 0.00 0.00 0.00 81 1010.2
20260506115947 58 13 5.0 15.0 0.00 0.00 0.00 81 1010.1
20260506115445 58 15 6.0 9.0 0.00 0.00 0.00 81 1009.8
20260506114943 58 357 4.0 12.0 0.00 0.00 0.00 81 1010.0
20260506114440 58 22 2.0 11.0 0.00 0.00 0.00 81 1010.1
20260506113939 58 337 5.0 7.0 0.00 0.00 0.00 82 1009.8
20260506113436 58 7 3.0 7.0 0.00 0.00 0.00 82 1009.8
20260506112932 58 5 8.0 16.0 0.00 0.00 0.00 82 1009.6
20260506112430 58 316 1.0 12.0 0.00 0.00 0.00 82 1009.6
20260506111927 58 1 4.0 13.0 0.00 0.00 0.00 82 1009.6
20260506111425 59 348 8.0 14.0 0.00 0.00 0.00 82 1009.6
20260506110922 59 334 4.0 10.0 0.00 0.00 0.00 82 1009.4
20260506110420 59 0 5.0 14.0 0.00 0.00 0.00 82 1009.2
20260506105916 59 307 5.0 12.0 0.00 0.00 0.00 82 1009.1
20260506105413 59 31 3.0 14.0 0.00 0.00 0.00 82 1009.3
20260506104910 60 0 5.0 6.0 0.00 0.00 0.00 81 1008.9
20260506104408 60 7 4.0 7.0 0.00 0.00 0.00 81 1008.8
20260506103906 60 355 3.0 6.0 0.00 0.00 0.00 80 1009.1
20260506103403 60 320 3.0 11.0 0.00 0.00 0.00 80 1008.8
20260506102900 60 288 2.0 8.0 0.00 0.00 0.00 81 1008.7
20260506102358 60 1 4.0 7.0 0.00 0.00 0.00 81 1008.7
20260506101855 60 359 4.0 12.0 0.00 0.00 0.00 81 1008.5
20260506101351 60 329 3.0 9.0 0.00 0.00 0.00 81 1008.6
20260506100849 61 353 3.0 8.0 0.00 0.00 0.00 80 1008.5
20260506100347 61 343 3.0 8.0 0.00 0.00 0.00 80 1008.3
20260506095845 61 21 5.0 10.0 0.00 0.00 0.00 80 1008.0
20260506095342 61 321 3.0 5.0 0.00 0.00 0.00 80 1008.3
20260506094838 61 314 2.0 6.0 0.00 0.00 0.00 80 1008.2
20260506094338 61 5 5.0 8.0 0.00 0.00 0.00 80 1007.9
20260506093835 62 12 2.0 6.0 0.00 0.00 0.00 80 1008.0
20260506093332 62 16 2.0 7.0 0.00 0.00 0.00 80 1008.2
20260506092830 62 326 3.0 7.0 0.00 0.00 0.00 80 1007.9
20260506092327 62 330 3.0 7.0 0.00 0.00 0.00 80 1007.7
20260506091824 62 5 4.0 9.0 0.00 0.00 0.00 81 1008.1
20260506091322 62 348 4.0 7.0 0.00 0.00 0.00 81 1008.2
20260506090819 62 14 5.0 7.0 0.00 0.00 0.00 81 1007.9